Location: Newark
(15.4608°S, 41.1635°W)
Time: 13:53:27
(UTC+00:00)

Vanguard 3 - Pass Details

Date: 03 March 2021
Orbit: 508 x 3262 km, 33.3° (Epoch: 16 April)

Event Time Altitude Azimuth Distance (km) Brightness Sun altitude
Exits shadow 07:49:21 - 229° (SW) 2,761 9.5 -14.2°
Reaches altitude 10° 07:50:48 10° 217° (SW) 2,484 9.4 -13.9°
Maximum altitude 07:54:47 18° 174° (S) 2,392 9.7 -12.9°
Drops below altitude 10° 08:00:14 10° 134° (SE) 3,566 11.3 -11.6°
Sets 08:05:38 0° 118° (ESE) 5,171 12.9 -10.4°
